Location: ??????
(41.3164°N, 22.6615°E)
Time: 02:33:52
(UTC+00:00)

CAS-4A - Pass Details

Date: 11 July 2022
Orbit: 521 x 537 km, 43.0° (Epoch: 10 August)

Event Time Altitude Azimuth Distance (km) Brightness Sun altitude
Exits shadow 00:02:07 29° 104° (ESE) 982 ? -23.4°
Drops below altitude 10° 00:04:09 10° 104° (ESE) 1,753 ? -23.3°
Sets 00:06:22 0° 105° (ESE) 2,642 ? -23.1°
